Regional Weather Roundup
Issued by NWS State College, PA

Home | Current Version | Previous Version | Graphics & Text | Print | Product List | Glossary On
Versions: 1 2 3 4 5 6 7 8 9 10 11 12 13 14 15 16 17 18 19 20 21 22 23 24 25 26 27 28 29 30 31 32 33 34 35 36 37 38 39 40 41 42 43 44 45 46 47 48 49 50
000
ASUS41 KCTP 130810
RWRCTP

REGIONAL WEATHER ROUNDUP
NATIONAL WEATHER SERVICE STATE COLLEGE PA
300 AM EST SAT FEB 13 2016

Note: "fair" indicates few or no clouds below 12,000 feet with no
significant weather and/or obstructions to visibility.

* = STATION THAT DOES NOT REPORT PRECIPITATION /E.G. RAIN...SNOW...ETC/
    THUNDER OR FOG.

PAZ002>004-007>009-013>016-020>023-029>032-130900-
WESTERN PENNSYLVANIA

CITY           SKY/WX    TMP DP  RH WIND       PRES   REMARKS
ERIE           LGT SNOW  14   4  64 NW23G31   30.11R WCI  -5
MEADVILLE      PTCLDY     8  -3  61 W15G21    30.06R WCI  -9
FRANKLIN*      MOCLDY     9  -2  61 NW9G18    30.06R WCI  -5
NEW CASTLE     FAIR       9   0  67 NW16G23   30.14R WCI  -8
BEAVER COUNTY  NOT AVBL
BUTLER*        PTCLDY    10   1  67 NW10G22   30.11R WCI  -3
PITTSBURGH INT LGT SNOW  13   4  67 NW22G32   30.09R WCI  -6
PITTSBURGH     SNOW      14   9  80 NW12G21   30.07R VSB 1/2 WCI   0
INDIANA*       MOCLDY    14   7  73 NW14G21   30.04R HAZE    WCI  -1
LATROBE        LGT SNOW  14  12  92 W10       30.06R WCI   1
WASHINGTON CO* MOCLDY    14   5  67 W9G17     30.11R WCI   2
$$

PAZ004>006-010>012-017>019-024>028-033>037-041-042-045-046-049>053-130900-
CENTRAL PENNSYLVANIA

CITY           SKY/WX    TMP DP  RH WIND       PRES   REMARKS
BRADFORD       LGT SNOW   6  -1  73 NW12      29.89R WCI  -9
DUBOIS         PTCLDY     9   1  70 NW16G24   29.94R WCI  -8
CLEARFIELD     CLOUDY    11   1  64 NW13G28   29.95R WCI  -4
JOHNSTOWN      LGT SNOW  10   2  69 W23G32    29.90R WCI -10
ALTOONA        MOCLDY    15   4  61 NW16G23   29.94R WCI  -1
STATE COLLEGE  LGT SNOW  15   7  69 W18G26    29.93R WCI  -2
WILLIAMSPORT   PTCLDY    18   9  68 W12       29.91R WCI   5
SELINSGROVE    CLEAR     19   8  62 W8        29.93R WCI   9
FT INDIANTOWN  CLEAR     19  11  70 W12       29.92S WCI   6
CAPITAL CITY   PTCLDY    20   9  62 W10       29.95R WCI   9
HARRISBURG     MOCLDY    20  11  68 NW9       29.94R WCI   9
YORK           LGT SNOW  20  15  81 W9G22     29.95R WCI   9
$$

PAZ038>040-043-044-047-048-054-055-060>062-067>071-130900-
EASTERN PENNSYLVANIA

CITY           SKY/WX    TMP DP  RH WIND       PRES   REMARKS
SCRANTON       MOCLDY    16  11  80 SW7       29.82F WCI   6
MOUNT POCONO   LGT SNOW  13   8  81 W12       29.74S WCI  -1
ALLENTOWN      CLOUDY    17  12  80 SW8       29.89F WCI   7
QUAKERTOWN*    MOSUNNY   18  14  86 W5        29.89F WCI  11
READING        CLEAR     17  12  80 W7        29.91F WCI   8
LANCASTER      CLEAR     10   9  95 W7        29.93R FOG     WCI  -1
COATESVILLE    SUNNY     16  16 100 W7        29.91S WCI   6
POTTSTOWN      PTCLDY    16  13  88 CALM      29.93S
BLUE BELL        N/A     19  16  86 CALM      29.91S
DOYLESTOWN     PTCLDY    17  14  88 W6        29.89F WCI   9
WILLOW GROVE   NOT AVBL
NORTH PHILA    PTCLDY    23  14  68 W10       29.94S WCI  12
PHILADELPHIA   PTCLDY    22  15  75 W12       29.95F WCI  10
$$



USA.gov is the U.S. government's official web portal to all federal, state and local government web resources and services.